Home   Weather   Irvine   Past weeks
Flag for USA

Past Weather in Irvine, California, USA — Yesterday and Last 2 Weeks

Now
68 °F

Clear.


Feels Like: 68 °F
Forecast: 73 / 56 °F
Wind: 3 mph from West

Location: John Wayne Airport-Orange County Airport

Current Time: Nov 12, 2019 at 6:07:25 pm

Latest Report: Nov 12, 2019 at 4:53 pm


Visibility: 3 mi

Pressure: 29.98 "Hg

Humidity: 68%

Dew Point: 57 °F

Location of IrvineLocation

Past Weather in Irvine — Graph

°F

Irvine Temperature Yesterday

Maximum temperature yesterday: 71 °F (at 11:53 am)
Minimum temperature yesterday: 61 °F (at 11:53 pm)
Average temperature yesterday: 65 °F

High & Low Weather Summary for the Past Weeks

 TemperatureHumidityPressure
High84 °F (Nov 9, 1:53 pm)90% (Nov 6, 1:53 am)30.15 "Hg (Nov 6, 1:53 am)
Low48 °F (Oct 31, 4:53 am)5% (Oct 30, 2:53 pm)29.85 "Hg (Oct 29, 2:53 pm)
Average65 °F58%30.00 "Hg
* Reported Oct 28 5:53 pm — Nov 12 4:53 pm, Irvine. Weather by CustomWeather, © 2019

Note: Actual official high and low records may vary slightly from our data, if they occured in-between our weather recording intervals... More about our weather records

Advertising

Irvine Weather History for the Previous 24 Hours

Scroll right to see more
 ConditionsComfort  
Time TempWeatherWind HumidityBarometerVisibility
4:53 pm
Tue, Nov 12
68 °FClear.3 mph68%29.98 "Hg3 mi
3:53 pm70 °FHaze.6 mph64%29.97 "Hg3 mi
2:53 pm72 °FHaze.7 mph61%29.97 "Hg3 mi
1:53 pm74 °FScattered clouds.8 mph57%29.98 "Hg3 mi
12:53 pm74 °FHaze.5 mph56%29.99 "Hg4 mi
12:22 pm72 °FHaze.3 mph57%30.01 "Hg3 mi
11:53 am70 °FHaze.No wind61%30.03 "Hg2 mi
10:53 am66 °FHaze.No wind68%30.06 "Hg2 mi
9:53 am62 °FLow clouds.No wind78%30.09 "Hg1 mi
8:53 am60 °FLow clouds.5 mph83%30.09 "Hg1 mi
8:05 am59 °FLow clouds.6 mph84%30.08 "Hg1 mi
7:53 am59 °FLow clouds.No wind84%30.08 "Hg1 mi
6:53 am59 °FFog.3 mph87%30.06 "Hg1 mi
5:53 am59 °FFog.No wind87%30.06 "Hg1 mi
5:21 am59 °FFog.No wind87%30.05 "Hg1 mi
5:06 am58 °FFog.3 mph90%30.05 "Hg0 mi
4:19 am59 °FLow clouds.No wind84%30.04 "Hg2 mi
3:53 am60 °FLow clouds.No wind78%30.03 "Hg6 mi
2:53 am59 °FPassing clouds.No wind78%30.03 "Hg6 mi
1:53 am59 °FClear.No wind81%30.04 "Hg5 mi
1:28 am61 °FPassing clouds.No wind81%30.05 "Hg6 mi
12:53 am61 °FLow clouds.No wind78%30.04 "Hg7 mi
11:53 pm
Mon, Nov 11
61 °FLow clouds.No wind78%30.04 "Hg7 mi
10:53 pm62 °FFog.3 mph75%30.04 "Hg5 mi
9:53 pm63 °FFog.3 mph78%30.04 "Hg5 mi
9:01 pm63 °FFog.5 mph78%30.05 "Hg6 mi
7:53 pm64 °FClear.5 mph75%30.03 "Hg8 mi
6:53 pm64 °FPassing clouds.No wind75%30.02 "Hg8 mi
Weather by CustomWeather, © 2019

See weather overview